Regional Weather Roundup
Issued by NWS

Home | Current Version | Previous Version | Text Only | Print | Product List | Glossary Off
Versions: 1 2 3 4 5 6 7 8 9 10 11 12 13 14 15 16 17 18 19 20 21 22 23 24 25 26 27 28 29 30 31 32 33 34 35 36 37 38 39 40 41 42 43 44 45 46 47 48 49 50

000
ASUS43 KOAX 300010
RWRNE

WEATHER ROUNDUP FOR NEBRASKA
NATIONAL WEATHER SERVICE OMAHA NE
700 PM CDT FRI AUG 29 2014

NOTES: SATELLITE DATA IS BEING USED TO AUGMENT CLOUD COVER ABOVE
       12000 FEET.
       "FAIR" INDICATES FEW OR NO CLOUDS BELOW 12,000 FEET WITH NO
       SIGNIFICANT WEATHER AND/OR OBSTRUCTIONS TO VISIBILITY.

  * THESE STATIONS DO NOT REPORT WEATHER SUCH AS RAIN...SNOW OR FOG.

NEZ001>004-019>022-054>056-300100-
NEBRASKA PANHANDLE

CITY           SKY/WX    TMP DP  RH WIND       PRES   REMARKS
SCOTTSBLUFF    MOSUNNY   78  58  49 E7        30.00S
6HR MIN TEMP:  71; 6HR MAX TEMP:  83; 6HR PCP:  0.01;

ALLIANCE       SUNNY     75  52  44 N10       30.01S
6HR MIN TEMP:  75; 6HR MAX TEMP:  80;

CHADRON        MOSUNNY   75  55  49 E10       29.99S
6HR MIN TEMP:  72; 6HR MAX TEMP:  77; 6HR PCP:  0.03;

KIMBALL        MOSUNNY   76  46  33 N8        30.04S
SIDNEY         SUNNY     77  51  40 NE14      30.03R
6HR MIN TEMP:  77; 6HR MAX TEMP:  85;

$$

NEZ057>060-069>072-079>082-300100-
SOUTHWEST NEBRASKA

CITY           SKY/WX    TMP DP  RH WIND       PRES   REMARKS
IMPERIAL       MOSUNNY   80  55  42 N7        29.94R
6HR MIN TEMP:  80; 6HR MAX TEMP:  85;

LEXINGTON      MOSUNNY   79  62  55 N6        29.87R
MCCOOK         MOSUNNY   85  54  34 NE7       29.89R
6HR MIN TEMP:  81; 6HR MAX TEMP:  88;

OGALLALA       MOSUNNY   78  56  46 N15G21    29.96R
$$

NEZ005>010-023>029-035>040-094-300100-
NORTH CENTRAL NEBRASKA

CITY           SKY/WX    TMP DP  RH WIND       PRES   REMARKS
VALENTINE      MOSUNNY   76  55  48 N15G22    29.93R
6HR MIN TEMP:  75; 6HR MAX TEMP:  84;

AINSWORTH      MOSUNNY   70  59  67 N7        29.91S
BROKEN BOW     MOSUNNY   75  63  66 N8        29.87R
6HR MIN TEMP:  75; 6HR MAX TEMP:  84;

O`NEILL        SUNNY     75  68  77 NW6       29.85R
ORD            SUNNY     78  63  59 N7        29.83R
6HR MIN TEMP:  74; 6HR MAX TEMP:  80;

THEDFORD       MOSUNNY   78  60  53 N14G28    29.92R
$$

NEZ041-046>049-061>064-073>077-083>087-300100-
SOUTH CENTRAL NEBRASKA

CITY           SKY/WX    TMP DP  RH WIND       PRES   REMARKS
GRAND ISLAND   PTSUNNY   78  65  63 NW7       29.83R
6HR MIN TEMP:  69; 6HR MAX TEMP:  79; 6HR PCP:  0.02;

AURORA         CLOUDY    74  66  75 NW5       29.82S
HASTINGS       MOSUNNY   78  61  55 NW3       29.83R
6HR MIN TEMP:  70; 6HR MAX TEMP:  79; 6HR PCP:  0.25;

HEBRON         MOSUNNY   80  65  61 SW3       29.80F
HOLDREGE       SUNNY     80  61  52 CALM      29.85S
KEARNEY *      SUNNY     79  64  61 NW5       29.85S
YORK           CLOUDY    72 N/A N/A NW7       29.81F
$$

NEZ011>018-030>034-042>045-300100-
NORTHEAST NEBRASKA

CITY           SKY/WX    TMP DP  RH WIND       PRES   REMARKS
NORFOLK        CLOUDY    75  66  73 NW10      29.80R
6HR MIN TEMP:  71; 6HR MAX TEMP:  76; 6HR PCP: TRACE;

ALBION         PTSUNNY   74  65  71 N8        29.82R
BLAIR          CLOUDY    73  70  91 CALM      29.79R
FREMONT        CLOUDY    74  66  77 W3        29.80S
TEKAMAH        LGT RAIN  69  67  93 S3        29.78S
6HR MIN TEMP:  68; 6HR MAX TEMP:  78; 6HR PCP:  0.39;

WAYNE          PTSUNNY   72  68  88 CALM      29.79S
$$

NEZ050>053-065>068-078-088>093-300100-
SOUTHEAST NEBRASKA

CITY           SKY/WX    TMP DP  RH WIND       PRES   REMARKS
LINCOLN        CLOUDY    72  66  81 CALM      29.80S
6HR MIN TEMP:  71; 6HR MAX TEMP:  75; 6HR PCP: TRACE;

OMAHA EPPLEY   CLOUDY    72  67  84 S6        29.78S
6HR MIN TEMP:  69; 6HR MAX TEMP:  78; 6HR PCP:  0.59;

BEATRICE       PTSUNNY   75  69  80 SW7       29.79F
NEBRASKA CITY  CLOUDY    74  67  77 NW5       29.79F
PLATTSMOUTH    CLOUDY    72  67  86 S5        29.79S
$$

NEZ044-045-051>053-067-300100-
OMAHA AREA

CITY           SKY/WX    TMP DP  RH WIND       PRES   REMARKS
OMAHA EPPLEY   CLOUDY    72  67  84 S6        29.78S
6HR MIN TEMP:  69; 6HR MAX TEMP:  78; 6HR PCP:  0.59;

BLAIR          CLOUDY    73  70  91 CALM      29.79R
FREMONT        CLOUDY    74  66  77 W3        29.80S
MILLARD        CLOUDY    73  67  80 SW3       29.78S
OFFUTT AFB     CLOUDY    71  71 100 VRB2      29.78F
PLATTSMOUTH    CLOUDY    72  67  86 S5        29.79S
WAHOO          CLOUDY    72  65  78 SW3       29.80R
$$



USA.gov is the U.S. government's official web portal to all federal, state and local government web resources and services.